Hourly Weather Russkiy

Today, 22 April, Thursday

Time Temperature Precipitation Wind Pressure Humidity
00:00 +5°C° 0 mm 3 mps 745 mmHg 90%
01:00 +5°C° 0.1 mm 3 mps 745 mmHg 91%
02:00 +5°C° 0.1 mm 3 mps 745 mmHg 91%
03:00 +4°C° 0.1 mm 4 mps 745 mmHg 92%
04:00 +4°C° 0 mm 3 mps 746 mmHg 93%
05:00 +3°C° 0 mm 3 mps 746 mmHg 93%
06:00 +3°C° 0 mm 3 mps 746 mmHg 94%
07:00 +4°C° 0 mm 3 mps 747 mmHg 86%
08:00 +7°C° 0 mm 3 mps 747 mmHg 78%
09:00 +7°C° 0 mm 4 mps 748 mmHg 70%
10:00 +8°C° 0 mm 4 mps 748 mmHg 65%
11:00 +11°C° 0 mm 4 mps 748 mmHg 60%
12:00 +12°C° 0 mm 4 mps 748 mmHg 55%
13:00 +12°C° 0 mm 4 mps 748 mmHg 53%
14:00 +13°C° 0 mm 4 mps 748 mmHg 51%
15:00 +13°C° 0 mm 3 mps 748 mmHg 50%
16:00 +13°C° 0 mm 3 mps 748 mmHg 52%
17:00 +14°C° 0 mm 2 mps 748 mmHg 54%
18:00 +13°C° 0 mm 2 mps 748 mmHg 56%
19:00 +13°C° 0 mm 2 mps 749 mmHg 57%
20:00 +12°C° 0 mm 2 mps 749 mmHg 59%
21:00 +11°C° 0 mm 3 mps 749 mmHg 60%
22:00 +11°C° 0 mm 3 mps 749 mmHg 60%
23:00 +10°C° 0 mm 2 mps 749 mmHg 60%

Tomorrow, 23 April, Friday

Time Temperature Precipitation Wind Pressure Humidity
00:00 +10°C° 0 mm 2 mps 749 mmHg 59%
01:00 +10°C° 0 mm 3 mps 749 mmHg 62%
02:00 +10°C° 0 mm 3 mps 749 mmHg 65%
03:00 +9°C° 0 mm 3 mps 749 mmHg 67%
04:00 +9°C° 0 mm 3 mps 749 mmHg 70%
05:00 +9°C° 0 mm 3 mps 748 mmHg 72%
06:00 +8°C° 0 mm 3 mps 748 mmHg 75%
07:00 +10°C° 0 mm 3 mps 748 mmHg 69%
08:00 +12°C° 0 mm 4 mps 748 mmHg 62%
09:00 +14°C° 0 mm 4 mps 748 mmHg 56%
10:00 +14°C° 0 mm 4 mps 748 mmHg 52%
11:00 +15°C° 0 mm 4 mps 748 mmHg 48%
12:00 +15°C° 0 mm 4 mps 748 mmHg 44%
13:00 +15°C° 0 mm 4 mps 747 mmHg 45%
14:00 +17°C° 0 mm 4 mps 747 mmHg 45%
15:00 +17°C° 0 mm 4 mps 747 mmHg 45%
16:00 +15°C° 0.2 mm 4 mps 746 mmHg 51%
17:00 +14°C° 0.2 mm 4 mps 746 mmHg 57%
18:00 +14°C° 0.2 mm 4 mps 746 mmHg 63%
19:00 +12°C° 0.2 mm 4 mps 746 mmHg 69%
20:00 +11°C° 0.2 mm 4 mps 745 mmHg 76%
21:00 +10°C° 0.2 mm 4 mps 745 mmHg 82%
22:00 +8°C° 0.1 mm 4 mps 745 mmHg 84%
23:00 +8°C° 0.1 mm 4 mps 744 mmHg 85%

Day after tomorrow, 24 April, Saturday

Time Temperature Precipitation Wind Pressure Humidity
00:00 +7°C° 0.1 mm 4 mps 744 mmHg 87%
01:00 +7°C° 0 mm 4 mps 743 mmHg 87%
02:00 +7°C° 0 mm 4 mps 742 mmHg 87%
03:00 +7°C° 0 mm 4 mps 742 mmHg 88%
04:00 +7°C° 0.1 mm 4 mps 742 mmHg 87%
05:00 +8°C° 0.1 mm 3 mps 741 mmHg 87%
06:00 +8°C° 0.1 mm 3 mps 741 mmHg 87%
07:00 +8°C° 0.1 mm 4 mps 741 mmHg 83%
08:00 +10°C° 0.1 mm 4 mps 741 mmHg 78%
09:00 +11°C° 0.1 mm 4 mps 740 mmHg 73%
10:00 +10°C° 0.7 mm 5 mps 740 mmHg 74%
11:00 +9°C° 0.7 mm 7 mps 740 mmHg 75%
12:00 +9°C° 0.7 mm 8 mps 739 mmHg 75%
13:00 +6°C° 0.4 mm 7 mps 740 mmHg 79%
14:00 +5°C° 0.4 mm 6 mps 740 mmHg 83%
15:00 +3°C° 0.4 mm 5 mps 740 mmHg 86%
16:00 +5°C° 0.1 mm 4 mps 740 mmHg 82%
17:00 +5°C° 0.1 mm 3 mps 740 mmHg 78%
18:00 +7°C° 0.1 mm 3 mps 740 mmHg 73%
19:00 +5°C° 0.4 mm 3 mps 740 mmHg 77%
20:00 +5°C° 0.4 mm 3 mps 741 mmHg 81%
21:00 +5°C° 0.4 mm 4 mps 741 mmHg 84%
22:00 +4°C° 0.2 mm 4 mps 741 mmHg 84%
23:00 +4°C° 0.2 mm 4 mps 741 mmHg 85%

25 April, Sunday

Time Temperature Precipitation Wind Pressure Humidity
00:00 +4°C° 0.2 mm 3 mps 741 mmHg 85%
01:00 +4°C° 0 mm 4 mps 741 mmHg 83%
02:00 +3°C° 0 mm 4 mps 741 mmHg 82%
03:00 +3°C° 0 mm 4 mps 742 mmHg 81%
04:00 +3°C° 0 mm 4 mps 742 mmHg 82%
05:00 +1°C° 0 mm 4 mps 742 mmHg 83%
06:00 +2°C° 0 mm 3 mps 743 mmHg 85%
07:00 +3°C° 0 mm 4 mps 743 mmHg 78%
08:00 +3°C° 0 mm 5 mps 743 mmHg 71%
09:00 +5°C° 0 mm 5 mps 743 mmHg 64%
10:00 +5°C° 0.2 mm 6 mps 744 mmHg 59%
11:00 +5°C° 0.2 mm 6 mps 744 mmHg 55%
12:00 +6°C° 0.2 mm 7 mps 744 mmHg 50%
13:00 +6°C° 0.1 mm 7 mps 744 mmHg 46%
14:00 +8°C° 0.1 mm 7 mps 744 mmHg 42%
15:00 +8°C° 0.1 mm 7 mps 744 mmHg 37%
16:00 +8°C° 0 mm 7 mps 744 mmHg 42%
17:00 +7°C° 0 mm 6 mps 744 mmHg 48%
18:00 +7°C° 0 mm 6 mps 744 mmHg 53%
19:00 +5°C° 0 mm 5 mps 745 mmHg 59%
20:00 +4°C° 0 mm 4 mps 745 mmHg 66%
21:00 +3°C° 0 mm 3 mps 745 mmHg 73%
22:00 +3°C° 0 mm 3 mps 745 mmHg 75%
23:00 +3°C° 0 mm 3 mps 745 mmHg 77%

26 April, Monday

Time Temperature Precipitation Wind Pressure Humidity
00:00 +2°C° 0 mm 3 mps 745 mmHg 78%
01:00 +2°C° 0 mm 3 mps 745 mmHg 80%
02:00 +2°C° 0 mm 3 mps 745 mmHg 82%
03:00 +2°C° 0 mm 3 mps 745 mmHg 83%
04:00 +2°C° 0.1 mm 3 mps 745 mmHg 85%
05:00 +2°C° 0.1 mm 3 mps 745 mmHg 87%
06:00 +2°C° 0.1 mm 3 mps 745 mmHg 88%
07:00 +3°C° 0.4 mm 3 mps 745 mmHg 88%
08:00 +3°C° 0.4 mm 3 mps 745 mmHg 88%
09:00 +3°C° 0.4 mm 3 mps 745 mmHg 88%
10:00 +4°C° 0.1 mm 3 mps 745 mmHg 82%
11:00 +5°C° 0.1 mm 3 mps 744 mmHg 75%
12:00 +7°C° 0.1 mm 3 mps 744 mmHg 69%
13:00 +7°C° 0.1 mm 3 mps 744 mmHg 65%
14:00 +8°C° 0.1 mm 3 mps 743 mmHg 62%
15:00 +8°C° 0.1 mm 3 mps 743 mmHg 59%
16:00 +7°C° 0.7 mm 2 mps 743 mmHg 68%
17:00 +6°C° 0.7 mm 2 mps 742 mmHg 77%
18:00 +5°C° 0.7 mm 2 mps 742 mmHg 86%
19:00 +4°C° 2.5 mm 2 mps 742 mmHg 89%
20:00 +3°C° 2.5 mm 2 mps 742 mmHg 93%
21:00 +2°C° 2.5 mm 2 mps 742 mmHg 96%
22:00 +2°C° 0.2 mm 2 mps 742 mmHg 95%
23:00 +3°C° 0.2 mm 2 mps 742 mmHg 95%

27 April, Tuesday

Time Temperature Precipitation Wind Pressure Humidity
00:00 +3°C° 0.2 mm 2 mps 742 mmHg 94%
01:00 +2°C° 0.2 mm 3 mps 742 mmHg 93%
02:00 +2°C° 0.2 mm 3 mps 741 mmHg 93%
03:00 +2°C° 0.2 mm 3 mps 741 mmHg 92%
04:00 +1°C° 0 mm 3 mps 741 mmHg 93%
05:00 +2°C° 0 mm 2 mps 741 mmHg 93%
06:00 +2°C° 0 mm 2 mps 741 mmHg 94%
07:00 +2°C° 0.1 mm 3 mps 742 mmHg 86%
08:00 +3°C° 0.1 mm 3 mps 742 mmHg 79%
09:00 +5°C° 0.1 mm 3 mps 742 mmHg 71%
10:00 +5°C° 0.5 mm 4 mps 742 mmHg 66%
11:00 +6°C° 0.5 mm 4 mps 742 mmHg 62%
12:00 +7°C° 0.5 mm 5 mps 742 mmHg 58%
13:00 +7°C° 0.4 mm 5 mps 742 mmHg 55%
14:00 +7°C° 0.4 mm 5 mps 742 mmHg 52%
15:00 +7°C° 0.4 mm 6 mps 742 mmHg 50%
16:00 +7°C° 0.1 mm 5 mps 742 mmHg 50%
17:00 +7°C° 0.1 mm 5 mps 742 mmHg 51%
18:00 +7°C° 0.1 mm 5 mps 742 mmHg 52%
19:00 +5°C° 0 mm 4 mps 743 mmHg 59%
20:00 +4°C° 0 mm 4 mps 743 mmHg 66%
21:00 +3°C° 0 mm 4 mps 744 mmHg 73%
22:00 +1°C° 0 mm 4 mps 744 mmHg 75%
23:00 +1°C° 0 mm 4 mps 744 mmHg 78%
Show more